Regional Weather Roundup
Issued by NWS Bismarck, ND

Home | Current Version | Previous Version | Text Only | Print | Product List | Glossary Off
Versions: 1 2 3 4 5 6 7 8 9 10 11 12 13 14 15 16 17 18 19 20 21 22 23 24 25 26 27 28 29 30 31 32 33 34 35 36 37 38 39 40 41 42 43 44 45 46 47 48 49 50

000
ASUS43 KBIS 272310
RWRBIS

NWR BROADCAST TEXT
NATIONAL WEATHER SERVICE BISMARCK ND
500 PM CST THU NOV 27 2014

NOTE: "FAIR" INDICATES FEW OR NO CLOUDS BELOW 12,000 FEET WITH NO
SIGNIFICANT WEATHER AND/OR OBSTRUCTIONS TO VISIBILITY.


CITY           SKY/WX    TMP DP  RH WIND       PRES   REMARKS
WILLISTON      CLOUDY    20  15  81 E12       29.85S WCI   8
MINOT          LGT SNOW  13   9  84 E14       29.98F VSB 3/4 WCI  -2
MINOT AFB      CLOUDY    14  12  92 E15       29.99F BLWGSNOWWCI  -1
BISMARCK       LGT SNOW  12   9  87 SE20G25   30.00F FOG     WCI  -6
DICKINSON      CLOUDY    25  20  81 S17       29.81F WCI  12
GARRISON         N/A     13  11  92 SE16      29.94F WCI  -3
HETTINGER ARPT CLOUDY    24  19  81 S12       29.87F WCI  13
JAMESTOWN      MIX PCPN   6  -1  73 SE13      30.14F WCI -10
BEACH          FAIR      32  28  86 S12       29.78S
CARRINGTON     CLOUDY     5   0  78 SE21G26   30.11F WCI -16
CROSBY         LGT SNOW  16  16 100 E16       29.91S VSB 1   WCI   0
HARVEY         LGT SNOW   7   3  85 SE15      30.07F WCI -11
HAZEN          MOCLDY    12   7  79 SE12G20   29.96F WCI  -2
LINTON         LGT SNOW   9   7  92 SE20      30.02F WCI -11
MANDAN         MOCLDY    10   7  85 SE21      29.97F WCI  -9
OAKES          FLURRIES   7   1  78 E13       30.19F WCI  -9
RUGBY          LGT SNOW   7   3  85 SE14      30.08S VSB 1   WCI -10
STANLEY        LGT SNOW  12  12 100 SE14      29.91R WCI  -3
TIOGA          LGT SNOW  16  16 100 SE15      29.91S WCI   1
$$

CITY           SKY/WX    TMP DP  RH WIND       PRES   REMARKS
GRAND FORKS    CLOUDY     4  -4  69 S12       30.28F WCI -12
GRAND FORKS AF CLOUDY     4  -4  68 S12       30.26F WCI -12
DEVILS LAKE    CLOUDY     7  -8  51 SE15G21   30.11F WCI -11
FARGO          CLOUDY     9  -2  61 SE14      30.28F WCI  -7
CANDO          LGT SNOW   7   1  78 SE14      30.13F WCI -10
CAVALIER       FAIR       7   0  72 S15       30.23F WCI -11
GRAFTON        FAIR       5  -2  72 S15       30.27F WCI -13
GWINNER        CLOUDY     9   0  66 SE16      30.22F WCI  -9
LANGDON        CLOUDY     7   0  72 S12       30.13F WCI  -9
ROLLA          LGT SNOW   7   1  78 S12       30.09F WCI  -9
WALHALLA         N/A      9   0  66 S10       30.22F WCI  -6
$$

CITY           SKY/WX    TMP DP  RH WIND       PRES   REMARKS
ABERDEEN       CLOUDY    13   5  70 SE13      30.19F WCI  -2
MOBRIDGE       CLOUDY    17  11  77 SE22      29.98F WCI   0
BUFFALO          N/A     30  23  75 S13       29.78F WCI  20
RAPID CITY     CLEAR     34  27  75 E3        29.88F
GLASGOW        CLEAR     32  28  85 E9        29.75R
SIDNEY         CLOUDY    32  27  80 SE6       29.81F
WOLF POINT     PTCLDY    32  27  81 NE9       29.78R
GLENDIVE       PTCLDY    36  28  75 S10       29.77F
MILES CITY     CLEAR     41  33  73 S7        29.79F
BAKER          MOCLDY    42  31  64 W9        29.80S
$$

CITY           SKY/WX    TMP DP  RH WIND       PRES   REMARKS
BILLINGS       PTCLDY    50  30  46 SW17      29.85S
GREAT FALLS    CLEAR     55  34  45 W29G36    29.73F
REGINA         CLOUDY    18  14  86 E13       29.94R WCI   4
ESTEVAN        LGT SNOW  10   7  85 E18       29.93F VSB 1   WCI  -8
$$



USA.gov is the U.S. government's official web portal to all federal, state and local government web resources and services.